Location: Falniów
(50.3639°N, 19.9642°E)
Time: 04:23:53
(UTC+00:00)

SL-08 R/B - Visible Passes

Search period start: 21 April 2026 00:00
Search period end: 01 May 2026 00:00
Orbit: 667 x 729 km, 98.5° (Epoch: 20 April)

Date Brightness Start Highest point End Pass type
(mag) Time Alt. Az. Time Alt. Az. Time Alt. Az.
21 Apr 3.4 19:26:49 10° NNE 19:31:46 84° WNW 19:36:39 10° SSW visible
21 Apr 6.2 21:05:50 10° NNW 21:08:39 16° NW 21:11:28 10° W visible
22 Apr 4.1 18:30:50 10° NNE 18:35:16 33° E 18:39:40 10° SSE visible
22 Apr 4.8 20:08:24 10° N 20:12:57 39° WNW 20:17:28 10° SW visible
23 Apr 3.3 19:11:51 10° NNE 19:16:48 74° ESE 19:21:40 10° S visible
23 Apr 5.9 20:50:24 10° NNW 20:53:53 20° WNW 20:57:22 10° WSW visible
24 Apr 4.5 18:16:09 10° NE 18:20:11 25° E 18:24:10 10° SSE visible
24 Apr 4.2 19:53:17 10° N 19:58:04 51° WNW 20:02:47 10° SW visible
24 Apr 6.6 21:34:30 10° NW 21:34:37 10° NW 21:34:43 10° NW visible
25 Apr 3.5 18:56:57 10° NNE 19:01:48 54° E 19:06:34 10° S visible
25 Apr 5.6 20:35:08 10° N 20:39:06 25° WNW 20:43:03 10° WSW visible
26 Apr 3.7 19:38:15 10° N 19:43:09 69° WNW 19:47:59 10° SSW visible
26 Apr 6.3 21:17:42 10° NNW 21:19:54 13° NW 21:22:05 10° WNW visible
27 Apr 3.9 18:42:06 10° NNE 18:46:45 40° E 18:51:19 10° SSE visible
27 Apr 5.1 20:19:56 10° N 20:24:16 32° WNW 20:28:34 10° SW visible
28 Apr 3.4 19:23:15 10° NNE 19:28:12 90° E 19:33:04 10° SSW visible
28 Apr 6.1 21:02:07 10° NNW 21:05:09 17° NW 21:08:10 10° W visible
29 Apr 4.2 18:27:21 10° NNE 18:31:40 30° E 18:35:55 10° SSE visible
29 Apr 4.6 20:04:47 10° N 20:09:24 42° WNW 20:13:58 10° SW visible
30 Apr 3.4 19:08:18 10° NNE 19:13:13 67° ESE 19:18:02 10° S visible
30 Apr 5.8 20:46:44 10° N 20:50:22 21° WNW 20:53:58 10° WSW visible
